User: anonymous   Login
Location: Caltech
(34.1382°N, 118.1253°W)
Time: 18:47:14
(UTC-07:00)
Language:

Cosmos 44 Rocket - Orbit

View from above orbital plane
View from above orbital plane
View from above satellite
View from above satellite

Ground track
Ground track

The orbit data is extracted from the following two-line orbital elements,

1 00877U 64053B   17291.54075239 -.00000053  00000-0  13923-4 0  9996
2 00877  65.0774 291.9523 0051920  53.4568 307.1294 14.59308412819519
Epoch (UTC): 18 October 2017 12:58:41
Eccentricity: 0.0051920
inclination: 65.0774°
perigee height: 658 km
apogee height: 732 km
right ascension of ascending node: 291.9523°
argument of perigee: 53.4568°
revolutions per day: 14.59308412
mean anomaly at epoch: 307.1294°
orbit number at epoch: 81951

The dashed part of the orbit path shows where the satellite is in the earth's shadow,  

DLR